Location: Campolattaro
(41.2833°N, 14.7333°E)
Time: 23:59:58
(UTC+00:00)

SL-08 R/B - Pass Details

Date: 19 May 2025
Orbit: 950 x 1017 km, 82.9° (Epoch: 15 June)

Event Time Altitude Azimuth Distance (km) Brightness Sun altitude
Rises 21:41:14 0° 351° (N) 3,765 8.8 -26.2°
Reaches altitude 10° 21:43:47 10° 351° (N) 2,808 7.9 -26.4°
Maximum altitude 21:50:16 84° 264° (W) 1,019 4.5 -26.8°
Enters shadow 21:51:18 65° 187° (S) 1,100 4.4 -26.8°
